Regional Weather Roundup
Issued by NWS

Home | Current Version | Previous Version | Graphics & Text | Print | Product List | Glossary On
Versions: 1 2 3 4 5 6 7 8 9 10 11 12 13 14 15 16 17 18 19 20 21 22 23 24 25 26 27 28 29 30 31 32 33 34 35 36 37 38 39 40 41 42 43 44 45 46 47 48 49 50
576
ASUS45 KBOU 100610
RWRCO

WEATHER ROUNDUP FOR COLORADO
NATIONAL WEATHER SERVICE DENVER/BOULDER CO
1100 PM MST SAT DEC 09 2017

NOTE: "FAIR" INDICATES FEW OR NO CLOUDS BELOW 12000 FEET WITH NO
SIGNIFICANT WEATHER AND/OR OBSTRUCTIONS TO VISIBILITY.

COZ001>005-013-030-031-100700-
...NORTHWEST COLORADO...

CITY           SKY/WX    TMP DP  RH WIND       PRES   REMARKS
CRAIG          FAIR      10   5  80 CALM      30.58R
HAYDEN         FAIR      21  13  71 E13       30.58R WCI   9
MEEKER         FAIR      17   6  62 NE5       30.57R WCI  10
RABBIT EARS PA FAIR      19  10  68 W9        30.57S WCI   9
STEAMBOAT SPGS FAIR      21  13  72 CALM      30.58R
WALDEN         FAIR      10   1  67 SE3       30.57R
$$

COZ006>008-011-100700-
...WEST CENTRAL VALLEYS...

CITY           SKY/WX    TMP DP  RH WIND       PRES   REMARKS
GRAND JUNCTION FAIR      24   7  48 E9        30.56R WCI  14
MONTROSE       FAIR      20   3  48 S10       30.59R WCI   9
EAGLE          FAIR      12   8  84 CALM      30.66
RIFLE          FAIR      20   7  57 CALM      30.59R
DELTA          FAIR      24   2  39 CALM      30.59R
NUCLA          FAIR      25  -4  28 E12       30.58S WCI  14
$$

COZ017>023-064>068-100700-
...SOUTHWEST COLORADO...

CITY           SKY/WX    TMP DP  RH WIND       PRES   REMARKS
DURANGO        FAIR      17   2  51 CALM      30.51R
CORTEZ         FAIR      16   1  51 E6        30.52R WCI   7
PAGOSA SPRINGS FAIR      19   3  49 CALM      30.52S
TELLURIDE      FAIR      27 -10  19 SE5       30.60S WCI  21
WOLF CREEK PAS FAIR      25 -22  12 NW5       30.65R WCI  19
$$

COZ009-010-012-014-032>034-037-058>063-100700-
...CENTRAL COLORADO...

CITY           SKY/WX    TMP DP  RH WIND       PRES   REMARKS
ASPEN          FAIR      22   3  44 SW10      30.58R WCI  11
BUENA VISTA    FAIR      33  -3  21 NW16G22   30.53R WCI  22
COPPER MTN     NOT AVBL
BERTHOUD PASS  FAIR      14   3  62 NW25      30.56S WCI  -5
COTTONWOOD PAS FAIR      37 -24   6 W10G16    30.54R
GUNNISON       FAIR      11   3  70 CALM      30.60R
KREMMLING      FAIR       7   1  78 CALM      30.66R
LEADVILLE      FAIR      14  -6  40 NE3       30.57R
MONARCH PASS   FAIR      23 -13  20 W9G18     30.70R WCI  13
SALIDA         FAIR      27  -2  27 W6        30.60R WCI  21
SUNLIGHT       FAIR      27 -13  17 NW5       30.64S WCI  21
WILKERSON PASS FAIR      28 -24   9 N6        30.58R WCI  22
$$

COZ069>075-100700-
...SAN LUIS VALLEY/SANGRE DE CRISTO MOUNTAINS...

CITY           SKY/WX    TMP DP  RH WIND       PRES   REMARKS
ALAMOSA        FAIR       9  -5  53 W6        30.52R WCI  -1
DEL NORTE      FAIR      26  -8  22 W13       30.53R WCI  15
LA VETA PASS   FAIR      27  -6  24 SW9G18      N/A  WCI  17
SAGUACHE       FAIR      30  -4  22 NW16      30.52S WCI  19
$$

COZ035-036-038>040-100700-
...NORTHERN COLORADO FRONT RANGE...

CITY           SKY/WX    TMP DP  RH WIND       PRES   REMARKS
DENVER INTL AP FAIR      34   1  24 SW10      30.40S WCI  26
DMNS CITY PARK NOT AVBL
AURORA         CLEAR     33   1  25 S10       30.42R WCI  25
FRONT RANGE AP FAIR      38   1  21 SW8       30.41R
ERIE MUNI ARPT FAIR      22  10  59 CALM      30.46S
BOULDER MUN AP FAIR      39   0  19 CALM      30.40S
CENTENNIAL     CLEAR     90  36  14 S6        30.42R
BROOMFIELD     FAIR      37  -4  17 W7        30.41S
FORT COLLINS   FAIR      34   6  31 N6        30.40S WCI  29
LONGMONT       FAIR      31   6  35 W6        30.42S WCI  25
$$

COZ041-046-047-076>085-087-088-100700-
...PIKES PEAK/PALMER DIVIDE AND SOUTHERN FOOTHILLS...

CITY           SKY/WX    TMP DP  RH WIND       PRES   REMARKS
COLO. SPRINGS  FAIR      31  -1  25 N6        30.45S WCI  25
A. F. ACADEMY  FAIR      22  -2  33 N10       30.45R WCI  12
SCHRIEVER AFB  FAIR      38  -2  18 NW7       30.45R
CHEYENNE MTN   FAIR      38  -5  15 W3        30.41R
ELLICOTT         N/A    N/A N/A N/A CALM      30.43R
FALCON         FAIR      28  -4  25 W7        30.46S WCI  21
FORT CARSON    FAIR      30  -2  25 N10       30.43R WCI  21
LIMON          FAIR      25   1  35 N5        30.41R WCI  19
MONUMENT HILL  FAIR      27   1  33 SW7       30.46S WCI  19
CANON CITY     FAIR      34   1  25 NW8       30.44R WCI  27
WALSENBURG     FAIR      34   0  23 NW6       30.45S WCI  29
TRINIDAD       FAIR      27   6  41 W13       30.44R WCI  16
$$

COZ042>045-048>051-090-091-100700-
...NORTHEAST COLORADO...

CITY           SKY/WX    TMP DP  RH WIND       PRES   REMARKS
GREELEY ARPT   FAIR      22   5  48 NW5       30.40R WCI  16
AKRON          FAIR      31   2  29 W14       30.36R WCI  21
BURLINGTON     FAIR      31   6  35 W10       30.35R WCI  22
WRAY           FAIR      37   9  30 NW15      30.32R
YUMA           FAIR      32   7  34 W12       30.34R WCI  23
STERLING       FAIR      41   5  22 NW12G18   30.35R
HOLYOKE        FAIR      41  10  28 W12       30.32R
FORT MORGAN    FAIR      32   4  30 W10       30.37S WCI  24
$$

COZ086-089-092>099-100700-
...SOUTHEAST COLORADO...

CITY           SKY/WX    TMP DP  RH WIND       PRES   REMARKS
PUEBLO         FAIR      21   0  39 W7        30.43R WCI  12
LA JUNTA       FAIR      30   3  31 SW3       30.41R
LAMAR          FAIR      23   3  42 CALM      30.38R
SPRINGFIELD      N/A     22   4  46 W5        30.39R WCI  16
$$




USA.gov is the U.S. government's official web portal to all federal, state and local government web resources and services.